| time (UTC) | temp F | wind direction | speed knots | gust knots | rain 1hr in | rain 24hr in | rain mn in | humidity % | barometer mb |
| 20260504231527 | 54 | 168 | 6.1 | 9.6 | 0.00 | 0.01 | 0.01 | 69 | 1005.6 |
| 20260504230032 | 56 | 196 | 3.5 | 7.0 | 0.00 | 0.01 | 0.01 | 65 | 1005.4 |
| 20260504224530 | 58 | 167 | 4.3 | 7.0 | 0.00 | 0.01 | 0.01 | 62 | 1005.2 |
| 20260504223032 | 60 | 177 | 3.5 | 5.2 | 0.00 | 0.01 | 0.01 | 58 | 1005.4 |
| 20260504221529 | 61 | 199 | 1.7 | 6.1 | 0.00 | 0.01 | 0.01 | 57 | 1005.4 |
| 20260504220032 | 60 | 180 | 0.0 | 7.8 | 0.00 | 0.01 | 0.01 | 58 | 1005.3 |
| 20260504214529 | 60 | 188 | 1.7 | 8.7 | 0.00 | 0.01 | 0.01 | 57 | 1005.0 |
| 20260504213030 | 61 | 197 | 4.3 | 10.4 | 0.00 | 0.01 | 0.01 | 57 | 1004.9 |
| 20260504211536 | 60 | 222 | 2.6 | 11.3 | 0.00 | 0.01 | 0.01 | 58 | 1004.9 |
| 20260504210028 | 60 | 201 | 1.7 | 9.6 | 0.00 | 0.01 | 0.01 | 59 | 1004.8 |
| 20260504204529 | 60 | 194 | 7.0 | 14.8 | 0.00 | 0.01 | 0.01 | 58 | 1004.8 |
| 20260504203032 | 60 | 186 | 2.6 | 10.4 | 0.00 | 0.01 | 0.01 | 58 | 1004.7 |
| 20260504201530 | 60 | 221 | 6.1 | 13.0 | 0.00 | 0.01 | 0.01 | 60 | 1004.6 |
| 20260504200030 | 59 | 199 | 5.2 | 11.3 | 0.00 | 0.01 | 0.01 | 62 | 1004.7 |
| 20260504194528 | 58 | 150 | 2.6 | 9.6 | 0.00 | 0.01 | 0.01 | 65 | 1004.7 |
| 20260504193027 | 57 | 240 | 4.3 | 7.8 | 0.00 | 0.01 | 0.01 | 68 | 1004.8 |
| 20260504191528 | 55 | 206 | 2.6 | 6.1 | 0.01 | 0.01 | 0.01 | 74 | 1005.1 |
| 20260504190032 | 53 | 202 | 2.6 | 7.0 | 0.01 | 0.01 | 0.01 | 77 | 1005.4 |
| 20260504184542 | 52 | 352 | 2.6 | 7.0 | 0.01 | 0.03 | 0.01 | 76 | 1005.7 |
| 20260504183030 | 52 | 305 | 3.5 | 7.0 | 0.01 | 0.03 | 0.01 | 74 | 1005.9 |
| 20260504181534 | 53 | 315 | 0.9 | 7.8 | 0.00 | 0.02 | 0.00 | 68 | 1005.7 |
| 20260504180030 | 54 | 199 | 5.2 | 11.3 | 0.00 | 0.02 | 0.00 | 60 | 1005.6 |
| 20260504174528 | 53 | 245 | 5.2 | 12.2 | 0.00 | 0.07 | 0.00 | 61 | 1005.2 |
| 20260504173028 | 53 | 219 | 4.3 | 13.0 | 0.00 | 0.07 | 0.00 | 62 | 1005.2 |
| 20260504171530 | 53 | 198 | 7.8 | 15.6 | 0.00 | 0.07 | 0.00 | 68 | 1005.0 |
| 20260504081532 | 39 | 0 | 1.7 | 7.0 | 0.00 | 0.71 | 0.00 | 75 | 1006.1 |
| 20260504044530 | 41 | 319 | 4.3 | 8.7 | 0.00 | 0.82 | 0.00 | 70 | 1004.9 |
| 20260504043031 | 41 | 302 | 1.7 | 7.8 | 0.00 | 0.82 | 0.00 | 70 | 1004.8 |
| 20260504041534 | 41 | 303 | 0.9 | 8.7 | 0.00 | 0.82 | 0.00 | 68 | 1004.7 |
| 20260504040034 | 42 | 319 | 4.3 | 11.3 | 0.00 | 0.82 | 0.00 | 66 | 1004.6 |
| 20260504034531 | 43 | 278 | 7.0 | 13.0 | 0.00 | 0.82 | 0.82 | 64 | 1004.4 |
| 20260504033028 | 43 | 275 | 7.8 | 13.9 | 0.00 | 0.82 | 0.82 | 63 | 1004.4 |
| 20260504031528 | 43 | 315 | 9.6 | 15.6 | 0.00 | 0.82 | 0.82 | 62 | 1004.2 |
| 20260504030033 | 43 | 286 | 7.8 | 12.2 | 0.00 | 0.82 | 0.82 | 63 | 1004.1 |
| 20260504024532 | 43 | 286 | 7.0 | 12.2 | 0.00 | 0.82 | 0.82 | 63 | 1003.9 |
| 20260504023034 | 44 | 285 | 8.7 | 13.9 | 0.00 | 0.82 | 0.82 | 63 | 1003.9 |
| 20260504021530 | 44 | 285 | 9.6 | 15.6 | 0.00 | 0.82 | 0.82 | 63 | 1003.8 |
| 20260504020028 | 44 | 292 | 7.8 | 18.2 | 0.00 | 0.82 | 0.82 | 65 | 1003.8 |
| 20260504014534 | 44 | 276 | 8.7 | 14.8 | 0.00 | 0.82 | 0.82 | 67 | 1003.4 |
| 20260504013032 | 45 | 293 | 7.0 | 15.6 | 0.00 | 0.82 | 0.82 | 68 | 1003.2 |
| 20260504011530 | 45 | 311 | 8.7 | 13.0 | 0.00 | 0.82 | 0.82 | 73 | 1002.9 |
| 20260504010028 | 45 | 289 | 8.7 | 13.9 | 0.00 | 0.82 | 0.82 | 80 | 1002.8 |
| 20260504004529 | 44 | 304 | 2.6 | 7.0 | 0.00 | 0.82 | 0.82 | 86 | 1002.6 |
| 20260504003032 | 45 | 273 | 4.3 | 7.8 | 0.00 | 0.82 | 0.82 | 85 | 1002.2 |
| 20260504001537 | 45 | 293 | 2.6 | 7.8 | 0.00 | 0.82 | 0.82 | 86 | 1002.1 |
| 20260504000032 | 45 | 292 | 2.6 | 8.7 | 0.00 | 0.82 | 0.82 | 86 | 1001.9 |
| 20260503234541 | 45 | 300 | 4.3 | 7.8 | 0.00 | 0.82 | 0.82 | 86 | 1001.7 |
| 20260503233036 | 46 | 286 | 5.2 | 12.2 | 0.00 | 0.82 | 0.82 | 84 | 1001.6 |